Location: Eaton Estates
(41.3089°N, 82.0057°W)
Time: 22:17:50
(UTC+00:00)

FENGYUN 1C DEB - Visible Passes

Search period start: 29 November 2023 00:00
Search period end: 09 December 2023 00:00
Orbit: 467 x 848 km, 98.0° (Epoch: 19 November)

Date Brightness Start Highest point End Pass type
(mag) Time Alt. Az. Time Alt. Az. Time Alt. Az.
29 Nov ? 22:39:51 10° NNW 22:42:33 14° WNW 22:45:10 10° W visible
02 Dec ? 22:28:34 10° NNW 22:31:51 17° WNW 22:34:59 10° W visible
06 Dec ? 22:47:47 10° NW 22:49:08 11° WNW 22:50:27 10° WNW visible
